Bowling Green, KY

6:23 PM CDT on May 23, 2018 (GMT -0500)
Bowling Green-Warren County Regional

Weather History for KBWG - November, 2012

Change the Weather History Date:

Thursday, November 1, 2012

  Actual Average Record
Temperature  
Mean Temperature 46 °F 54 °F  
Max Temperature 61 °F 66 °F 87 °F (2016)
Min Temperature 30 °F 42 °F 21 °F (1913)
Degree Days  
Heating Degree Days 19 12  
Month to date heating degree days 19 12  
Since 1 July heating degree days 293 275  
Cooling Degree Days 0 0  
Month to date cooling degree days 0 0  
Year to date cooling degree days 1935 1488  
Moisture  
Dew Point 25 °F    
Average Humidity 46    
Maximum Humidity 72    
Minimum Humidity 20    
Precipitation  
Precipitation 0.00 in 0.13 in 2.20 in (1921)
Month to date precipitation 0.00 0.13  
Year to date precipitation 34.42 41.00  
Snow  
Snow 0.00 in 0.00 in T in (1966)
Month to date snowfall 0.0 0.0  
Since 1 July snowfall 0.0 T  
Since 1 September snowfall 0.0 T  
Snow Depth 0.00 in    
Sea Level Pressure  
Sea Level Pressure 29.97 in    
Wind  
Wind Speed 5 mph (WSW)    
Max Wind Speed 13 mph    
Max Gust Speed 17 mph    
Visibility 10 miles    
Events      
T = Trace of Precipitation, MM = Missing Value Source: NWS Daily Summary

Daily Weather History Graph

Daily Weather History Graph

Search for Another Location

Airport or City:

Astronomy

Nov. 01, 2012 Rise Set
Actual Time 7:10 AM CDT 5:47 PM CDT
Civil Twilight 6:43 AM CDT 6:14 PM CDT
Nautical Twilight 6:12 AM CDT 6:45 PM CDT
Astronomical Twilight 5:42 AM CDT 7:15 PM CDT
Moon 7:47 PM CDT (11/1) 9:39 AM CDT (11/1)
Length of Visible Light 11h 31m
Length of Day
10h 37m
Waning Gibbous, 93% of the Moon is Illuminated
Nov 1
Waning Gibbous
Nov 6
Last Quarter
Nov 13
New
Nov 20
First Quarter
Nov 28
Full

Hourly Weather History & Observations

Time (CDT) Temp. Windchill Dew Point Humidity Pressure Visibility Wind Dir Wind Speed Gust Speed Precip Events Conditions
12:53 AM 37.0 °F - 26.1 °F 65% 29.95 in 10.0 mi Calm Calm - N/A   Clear
1:53 AM 35.1 °F - 26.1 °F 70% 29.95 in 10.0 mi Calm Calm - N/A   Clear
2:53 AM 34.0 °F 31.0 °F 25.0 °F 70% 29.95 in 10.0 mi SSW 3.5 mph - N/A   Clear
3:53 AM 33.1 °F 30.0 °F 24.1 °F 70% 29.95 in 10.0 mi SW 3.5 mph - N/A   Clear
4:53 AM 33.1 °F 28.7 °F 24.1 °F 70% 29.96 in 10.0 mi SW 4.6 mph - N/A   Clear
5:53 AM 32.0 °F - 23.0 °F 69% 29.98 in 10.0 mi Calm Calm - N/A   Clear
6:53 AM 30.9 °F - 23.0 °F 72% 30.00 in 10.0 mi Calm Calm - N/A   Clear
7:53 AM 33.1 °F 30.0 °F 24.1 °F 70% 30.01 in 10.0 mi SW 3.5 mph - N/A   Clear
8:53 AM 41.0 °F 39.0 °F 27.0 °F 57% 30.02 in 10.0 mi West 3.5 mph - N/A   Clear
9:53 AM 46.0 °F 43.9 °F 24.1 °F 42% 30.02 in 10.0 mi WNW 4.6 mph - N/A   Clear
10:53 AM 51.1 °F - 25.0 °F 36% 30.02 in 10.0 mi West 5.8 mph - N/A   Clear
11:53 AM 55.0 °F - 23.0 °F 29% 30.00 in 10.0 mi West 5.8 mph - N/A   Clear
12:53 PM 57.0 °F - 19.9 °F 24% 29.99 in 10.0 mi West 8.1 mph - N/A   Clear
1:53 PM 60.1 °F - 19.9 °F 21% 29.97 in 10.0 mi Variable 6.9 mph - N/A   Clear
2:53 PM 60.1 °F - 19.9 °F 21% 29.96 in 10.0 mi WNW 8.1 mph - N/A   Clear
3:53 PM 61.0 °F - 21.0 °F 21% 29.95 in 10.0 mi West 10.4 mph - N/A   Clear
4:53 PM 59.0 °F - 24.1 °F 26% 29.95 in 10.0 mi West 9.2 mph - N/A   Clear
5:53 PM 55.9 °F - 25.0 °F 30% 29.94 in 10.0 mi WSW 3.5 mph - N/A   Clear
6:53 PM 55.0 °F - 27.0 °F 34% 29.95 in 10.0 mi SW 4.6 mph - N/A   Overcast
7:53 PM 55.0 °F - 28.9 °F 37% 29.94 in 10.0 mi SW 5.8 mph - N/A   Overcast
8:53 PM 54.0 °F - 30.9 °F 41% 29.94 in 10.0 mi WSW 3.5 mph - N/A   Overcast
9:53 PM 54.0 °F - 32.0 °F 43% 29.94 in 10.0 mi WSW 3.5 mph - N/A   Overcast
10:53 PM 54.0 °F - 33.1 °F 45% 29.93 in 10.0 mi Calm Calm - N/A   Overcast
11:53 PM 50.0 °F - 34.0 °F 54% 29.93 in 10.0 mi SSW 4.6 mph - N/A   Clear